Overview Statistics Trail Chart Weather Telemetry Raw packets
 

This is the latest recevied weather packets stored in our database for station/object WD7OO. If no packets are shown the sender has not sent any weather packets the latest 10 day(s).

<< 5 6 7 8 9 10 11 >>
Time Temp. Humidity Pressure Rain* Wind** Luminosity Snow
1788592334 23.33° C 99% 1013.3 hPa 0 mm - 0 W/m² -
1788592029 23.33° C 99% 1013.6 hPa 0 mm - 0 W/m² -
1788591724 23.33° C 99% 1013.9 hPa 0 mm - 0 W/m² -
1788591423 23.33° C 99% 1014 hPa 0 mm - 0 W/m² -
1788591118 23.33° C 99% 1013.9 hPa 0 mm - 0 W/m² -
1788590813 23.33° C 99% 1013.7 hPa 0 mm - 0 W/m² -
1788590509 23.33° C 99% 1013.7 hPa 1.27 mm - 0 W/m² -
1788590207 23.33° C 99% 1013.7 hPa 1.27 mm - 0 W/m² -
1788589904 23.33° C 99% 1013.5 hPa 0 mm - 0 W/m² -
1788589599 23.33° C 99% 1013.7 hPa 1.78 mm - 0 W/m² -
1788589298 23.89° C 99% 1013.5 hPa 1.27 mm - 0 W/m² -
1788588993 23.89° C 99% 1013.6 hPa 1.27 mm - 0 W/m² -
1788588692 23.89° C 99% 1013.3 hPa 1.78 mm - 0 W/m² -
1788588388 23.89° C 99% 1013.2 hPa 1.78 mm - 0 W/m² -
1788588085 23.89° C 99% 1013.1 hPa 0 mm - 0 W/m² -
1788587783 23.89° C 99% 1013.1 hPa 0 mm - 0 W/m² -
1788587478 23.89° C 99% 1013.1 hPa 0 mm - 0 W/m² -
1788587174 23.89° C 99% 1013.2 hPa 0 mm - 0 W/m² -
1788586869 23.89° C 99% 1013.5 hPa 0 mm - 0 W/m² -
1788586569 23.89° C 99% 1013 hPa 0 mm - 0 W/m² -
1788586264 23.89° C 99% 1013.1 hPa 0 mm - 0 W/m² -
1788585963 23.89° C 99% 1013.1 hPa 0 mm - 0 W/m² -
1788585658 23.89° C 99% 1013.6 hPa 0 mm - 0 W/m² -
1788585354 23.89° C 99% 1013.8 hPa 0 mm - 0 W/m² -
1788585050 23.89° C 99% 1014 hPa 0 mm - 0 W/m² -

* Rain latest hour (hover to see other rain measurements)
** Current wind speed in m/s (hover to see current wind gust speed)